AirNav   Pilot Hours Calculator
 
 434 users online  

AQY Girdwood Airport
Girdwood, Alaska, USA

GOING TO GIRDWOOD?


FAA INFORMATION EFFECTIVE 18 JULY 2019

Location

FAA Identifier: AQY
Lat/Long: 60-58-08.4800N / 149-07-09.6450W
60-58.141333N / 149-07.160750W
60.9690222 / -149.1193458
(estimated)
Elevation: 164 ft. / 50 m (estimated)
Variation: 25E (1985)
From city: 3 miles NE of GIRDWOOD, AK
Time zone: UTC -8 (UTC -9 during Standard Time)
Zip code: 99587

Airport Operations

Airport use: Open to the public
Control tower: no
ARTCC: ANCHORAGE CENTER
FSS: KENAI FLIGHT SERVICE STATION [907-283-8469]
NOTAMs facility: ENA (NOTAM-D service available)
Attendance: 907-783-2232
Wind indicator: yes
Segmented circle: yes

Airport Communications

CTAF: 122.9

Nearby radio navigation aids

VOR radial/distance  VOR name  Freq  Var
TEDr098/27.2ANCHORAGE VOR/DME113.1518E

 
NDB name  Hdg/Dist  Freq  Var  ID
CAMPBELL LAKE098/29.533816ECMQ -.-. -- --.-

Airport Services

Parking: tiedowns
Airframe service: NONE
Powerplant service: NONE
Bottled oxygen: NONE
Bulk oxygen: NONE

Runway Information

Runway 2/20

Dimensions: 2095 x 60 ft. / 639 x 18 m
Surface: gravel, in good condition
Runway edge markings: NSTD MKGS RYS 02 & 20 THLDS MKD BY REFLECTORS. RY EDGES UNMARKED.
Gradient: NORTH
RUNWAY 2  RUNWAY 20
Latitude: 60-58.008667N60-58.274000N
Longitude: 149-07.385833W149-06.935667W
Elevation: 134.0 ft.164.0 ft.
Traffic pattern: leftleft
Runway heading: 015 magnetic, 040 true195 magnetic, 220 true
Markings: NSTD, in good conditionNSTD, in good condition
Obstructions: 8 ft. brush, 105 ft. left of centerline12 ft. brush, 110 ft. right of centerline

Airport Ownership and Management from official FAA records

Ownership: Publicly-owned
Owner: ALASKA DOT&PF CENTRAL REGION
P.O. BOX 196900
ANCHORAGE, AK 99519-6900
Phone 907-269-0770
Manager: PAUL BERTHOLL
STATE OF ALASKA DOT/PF
GIRDWOOD, AK 99587
Phone 907-783-2232

Airport Operational Statistics

Aircraft based on the field: 15
Single engine airplanes: 9
Helicopters: 6
    
Aircraft operations: avg 77/week *
50% air taxi
25% transient general aviation
25% local general aviation
* for 12-month period ending 31 December 2017

Additional Remarks

RY CONDITION NOT MONITORED. RECOMMEND VISUAL INSPECTION PRIOR TO LANDING.
200 FT SAFETY AREA AT EACH END RY 02/20.
FOR WSO PHONE 271-3491.
PARAGLIDING ACTIVITY ON ARPT.
CABLE 100 FT AGL RUNS FROM NEW HOTEL TO ROUNDHOUSE.
SEGMENTED CIRCLE OVERGROWN.
SEASONAL HANG GLIDER AND PARASAIL ACTIVITY 2 NM NE OF ARPT DURING DALGT HRS.

Instrument Procedures

There are no published instrument procedures at AQY.

Some nearby airports with instrument procedures:

PAFR - Bryant Army Airfield Heliport (24 nm NW)
PAMR - Merrill Field Airport (26 nm NW)
PAED - Elmendorf Air Force Base (26 nm NW)
PANC - Ted Stevens Anchorage International Airport (28 nm NW)
PAAQ - Warren "Bud" Woods Palmer Municipal Airport (38 nm N)
 
Loc | Ops | Rwys | IFR | FBO | Links
Com | Nav | Svcs | Stats | Notes

Crowley
 
Area around AQY (Girdwood Airport)
 
Road maps at: MapQuest Bing Google
 
Aerial photo
WARNING: Photo may not be current or correct
Aerial photo of AQY (Girdwood Airport)
Photo by Jonathan Tack
Photo taken 07-Aug-2006

Do you have a better or more recent aerial photo of Girdwood Airport that you would like to share? If so, please send us your photo.

 
Sectional chart

 
Airport distance calculator
Flying to Girdwood Airport? Find the distance to fly.

From to AQY

Sunrise and sunset
Times for 21-Jul-2019
 Local
(UTC-8)
 Zulu
(UTC)
Morning civil twilight03:4711:47
Sunrise05:0513:05
Sunset23:0007:00
Evening civil twilight00:1808:18

Current date and time
Zulu (UTC)  22-Jul-2019 07:42:07
Local (UTC-8)  21-Jul-2019 23:42:07
 
METAR
PATO 
14nm SE 
220653Z AUTO 10006KT 10SM CLR 16/12 A3008 RMK AO2 SLP186 T01610122 TSNO
PAFR 
24nm NW 
220658Z AUTO 19008KT 10SM CLR 17/11 A3004 RMK AO2 SLP177 T01670108
PAMR 
26nm NW 
220653Z 31003KT 10SM CLR 18/13 A3006 RMK AO2 SLP178 T01780128
PAED 
26nm NW 
220656Z 24006KT 10SM FEW040 FEW200 17/13 A3006 RMK AO2A SLP174 T01660129 $
TAF
PAED 
26nm NW 
220300Z 2203/2309 25009KT 9999 FEW040 QNH3002INS BECMG 2209/2210 VRB06KT 9999 SCT040 QNH3001INS BECMG 2220/2221 25009KT 9999 FEW050 SCT160 QNH2995INS TX24/2223Z TN14/2212Z
PANC 
29nm NW 
220520Z 2206/2312 VRB04KT P6SM FEW040 SCT200 FM222100 26007KT P6SM FEW050 SCT120
NOTAMs
Click for the latest NOTAMs
NOTAMs are issued by the DoD/FAA and will open in a separate window not controlled by AirNav.

 

 
 

Would you like to see your business listed on this page?

 If your business provides an interesting product or service to pilots, flight crews, aircraft, or users of the Girdwood Airport, you should consider listing it here.  To start the listing process, click on the button below
 
Add a business
 

Other Pages about Girdwood Airport

girdwoodairport.com
 
Update a link
 
Copyright © AirNav, LLC. All rights reserved. Privacy Policy  Contact